weather.gov     
National Weather Service

Terminal Aerodrome Forecast
NWS Homepage
This page is being discontinued on March 12, 2014.
The same data is available at this site. Please update your bookmarks.
Thank you, and we apologize for the inconvenience.
Please send an email to SR-SRH.Webmaster@noaa.gov with any concerns.


Current Version
Previous Version:    01  02  03  04  05  06  07  08  09  10  11  12  13  14  15  16  17  18  19  20  21  22  23  24  25  26  27  28  29  30  
   31  32  33  
[Printable]
958
FTUS41 KCLE 201700
TAFERI
TAF
KERI 201733Z 2018/2118 19012G20KT P6SM OVC100
     FM202100 20012G20KT P6SM OVC050
      TEMPO 2021/2024 -SHRA
     FM210000 22010KT P6SM -SHRA OVC035
     FM210600 26010KT 5SM -SHRA OVC025
     FM211000 30010KT 4SM -SHRA OVC015=


U.S. Dept. of Commerce
NOAA National Weather Service
1325 East West Highway
Silver Spring, MD 20910
E-mail: w-nws.webmaster@noaa.gov
Page last modified: May 16, 2007
NATIONAL WEATHER SERVICE: for Safety, for Work, for Fun - FOR LIFE